COSMOS 1275 DEB, 12724

Orbit data source: Space-Track

COSMOS 1275 DEB, 12724 is space debris in LEO originally from a launch on Thu, 04 Jun 1981 UTC launched from the Plesetsk Missile And Space Complex (PKMTR). Debris objects in space refer to the collection of defunct objects orbiting the Earth. Examples of debris include non-operational satellites, rocket bodies, and fragments generated from explosions, collisions, or faulty payload assembly.

Loading next visibility...
Identifier
12724, 1981-053BR
Orbit
LEO
Country
Flag of CISCIS
Related business
Manufacturer
Unknown
Mission
Spacecraft
Bus & Motor
Unknown
Mass
Unknown
Launch date (UTC)
1981-06-04 (45 years ago)
Launch vehicle
Unknown
Launch site
Plesetsk Missile And Space Complex (PKMTR)
Object type
Payload
Rocket body
Debris
Shape & HBR
Unknown shape, 0.1 m
Radar Cross Section
Medium (>0.1 m² and <1 m²)

Expand to show TLE details & history
Last TLE update: 5 hours ago

TLE from 5 hours ago
0 COSMOS 1275 DEB
1 12724U 81053BR  26255.25913664  .00000626  00000-0  35268-3 0  9990
2 12724  82.9343 187.9012 0017626 330.5863 181.8600 14.08867911290263
Epoch: 2026-09-12T06:13Z
TLE epoch observation values (Epoch: 2026-09-12T06:13:09.405Z)
Latitude
27.37262°
Longitude
-80.31874°
Altitude
879.389 km
Speed
7.408 km/s
True Right ascension
00h 16m 57s
True Declination
27° 14' 05"
Sunlit
Object was in full shadow at epoch
Visualization orbit readout
Latitude
Unknown
Longitude
Unknown
Altitude
Unknown
Speed
Unknown
Apparent Right ascension
Unknown
Apparent Declination
Unknown
Sunlit
N/A
Visualization observer readout
Local Sidereal Time
03:50:00
Azimuth
Unknown
Elevation
Unknown
Doppler factor
Unknown
Orbital elements
Apogee altitude
873.109 km
Perigee altitude
847.592 km
Semi-major axis
7,238.488 km
Eccentricity
0.00176
Inclination
82.9343°
RAAN
187.9012°
Arg. of periapsis
330.5863°
True anomaly
181.85346°
Mean anomaly
181.86°
Eccentric anomaly
181.85673°
Mean motion
3.52429 °/min
Orbital period
102.15 mins
BSTAR
0.00035268
Loading maneuver chart data...
Computing Atmospheric mass density...
Loading historical data...
Loading historical data...
Loading historical data...
Loading historical data...
Loading historical data...
Loading historical data...
Loading historical data...

Documentation

Showing up to 5 results
|